User: anonymous   Login
Location: Unspecified
(0.0000°N, 0.0000°E)
Time: 20:48:50
(UTC+00:00)
Language:

Sakura - Orbit

View from above orbital plane
View from above orbital plane
View from above satellite
View from above satellite

Ground track
Ground track

The orbit is defined by the following mean orbital elements,

1 10516U          26150.51553816 +.00000000 +00000-0 +00000-0 0 00004
2 10516   7.4195 297.2270 0002268 107.1436 165.6238  0.98916563    08
Epoch (UTC): 30 May 2026 12:22:22
Eccentricity: 0.0002268
inclination: 7.4195°
perigee height: 36161 km
apogee height: 36181 km
right ascension of ascending node: 297.2270°
argument of perigee: 107.1436°
revolutions per day: 0.98916563
mean anomaly at epoch: 165.6238°

The dashed part of the orbit path shows where the satellite is in the earth's shadow,  

DLR